This is the latest recevied weather packets stored in our database for station/object WA1OUI. If no packets are shown the sender has not sent any weather packets the latest 1 day(s).
| Time | Temp. | Humidity | Pressure | Rain* | Wind** | Luminosity | Snow |
|---|---|---|---|---|---|---|---|
| 1778000924 | 26.67° C | 41% | 1006.4 hPa | 0 mm | 1.34 m/s, 38° | 765 W/m² | - |
| 1778000621 | 26.11° C | 43% | 1006.3 hPa | 0 mm | 0.45 m/s, 142° | 768 W/m² | - |
| 1778000316 | 26.11° C | 42% | 1006.3 hPa | 0 mm | 0.89 m/s, 114° | 771 W/m² | - |
| 1778000012 | 26.67° C | 41% | 1006.6 hPa | 0 mm | 0.89 m/s, 48° | 772 W/m² | - |
| 1777999708 | 26.67° C | 42% | 1006.5 hPa | 0 mm | 0.89 m/s, 0° | 778 W/m² | - |
| 1777999405 | 26.67° C | 44% | 1006.6 hPa | 0 mm | 1.79 m/s, 334° | 774 W/m² | - |
| 1777999104 | 26.11° C | 41% | 1006.7 hPa | 0 mm | 0 m/s | 776 W/m² | - |
| 1777998802 | 26.11° C | 44% | 1006.8 hPa | 0 mm | 0.89 m/s, 26° | 775 W/m² | - |
| 1777998500 | 25.56° C | 44% | 1006.9 hPa | 0 mm | 0.45 m/s, 166° | 777 W/m² | - |
| 1777998196 | 25.56° C | 44% | 1007 hPa | 0 mm | 0.89 m/s, 104° | 771 W/m² | - |
| 1777997893 | 25.56° C | 46% | 1007.2 hPa | 0 mm | 0.89 m/s, 352° | 771 W/m² | - |
| 1777997590 | 25.56° C | 47% | 1007.2 hPa | 0 mm | 0 m/s | 777 W/m² | - |
| 1777997287 | 25.56° C | 45% | 1007.2 hPa | 0 mm | 1.34 m/s, 32° | 774 W/m² | - |
| 1777996985 | 25.56° C | 45% | 1007.2 hPa | 0 mm | 0.89 m/s, 7° | 772 W/m² | - |
| 1777996682 | 25.56° C | 43% | 1007.5 hPa | 0 mm | 0 m/s | 773 W/m² | - |
| 1777996377 | 25° C | 44% | 1007.5 hPa | 0 mm | 0 m/s | 766 W/m² | - |
| 1777996074 | 25° C | 45% | 1007.5 hPa | 0 mm | 1.34 m/s, 119° | 761 W/m² | - |
| 1777995771 | 24.44° C | 47% | 1007.5 hPa | 0 mm | 0.89 m/s, 47° | 755 W/m² | - |
| 1777995467 | 24.44° C | 47% | 1007.8 hPa | 0 mm | 0.89 m/s, 266° | 744 W/m² | - |
| 1777995164 | 23.89° C | 49% | 1007.7 hPa | 0 mm | 0.89 m/s, 61° | 733 W/m² | - |
| 1777994862 | 23.89° C | 50% | 1007.6 hPa | 0 mm | 0 m/s | 720 W/m² | - |
| 1777994558 | 23.33° C | 50% | 1008 hPa | 0 mm | 0.89 m/s, 341° | 712 W/m² | - |
| 1777994257 | 22.78° C | 53% | 1008.1 hPa | 0 mm | 1.34 m/s, 356° | 715 W/m² | - |
| 1777993955 | 22.78° C | 53% | 1008.2 hPa | 0 mm | 0.89 m/s, 15° | 706 W/m² | - |
| 1777993653 | 22.22° C | 54% | 1008.2 hPa | 0 mm | 0 m/s | 687 W/m² | - |
* Rain latest hour (hover to see other rain measurements)
** Current wind speed in m/s (hover to see current wind gust speed)